AKX314 RJFK-RJFF

Flight info

Callsign AKX314
Flight time 0h 48m
Altitude 17000
Route SASIK Y14 HINAG/N0318F160 Y252 GOKYO Y25 ISKUP
Aircraft DH8D/M-SDE2E3FGRY/H

Departure

Time 2026-05-08 13:42
Airport Kagoshima Airport (RJFK)

Arrival

Time 2026-05-08 14:30
Airport Fukuoka Airport (RJFF)
Time Latitude Longitude Altitude Speed Heading
2026-05-08 13:02 31.80134 130.71683 895 ft 0 kts 240°
2026-05-08 13:20 31.80134 130.71681 895 ft 0 kts 240°
2026-05-08 13:21 31.80137 130.71687 895 ft 2 kts 240°
2026-05-08 13:21 31.80144 130.71703 895 ft 2 kts 240°
2026-05-08 13:21 31.80152 130.71718 895 ft 2 kts 240°
2026-05-08 13:22 31.80159 130.71733 896 ft 2 kts 240°
2026-05-08 13:22 31.80166 130.71748 896 ft 2 kts 240°
2026-05-08 13:22 31.80174 130.71764 896 ft 2 kts 240°
2026-05-08 13:22 31.80181 130.71779 896 ft 2 kts 240°
2026-05-08 13:23 31.80189 130.71794 896 ft 2 kts 239°
2026-05-08 13:23 31.80196 130.71809 896 ft 1 kts 240°
2026-05-08 13:23 31.80197 130.71812 896 ft 0 kts 240°
2026-05-08 13:27 31.80179 130.71808 896 ft 9 kts 148°
2026-05-08 13:27 31.80080 130.71892 893 ft 21 kts 150°
2026-05-08 13:28 31.79946 130.71980 889 ft 21 kts 150°
2026-05-08 13:28 31.79808 130.72073 886 ft 25 kts 151°
2026-05-08 13:28 31.79655 130.72177 882 ft 25 kts 149°
2026-05-08 13:28 31.79505 130.72279 875 ft 24 kts 150°
2026-05-08 13:29 31.79364 130.72372 869 ft 21 kts 150°
2026-05-08 13:29 31.79245 130.72453 866 ft 17 kts 149°
2026-05-08 13:29 31.79147 130.72520 862 ft 11 kts 150°
2026-05-08 13:29 31.79115 130.72580 860 ft 8 kts 98°
2026-05-08 13:30 31.79118 130.72606 860 ft 0 kts 64°
2026-05-08 13:33 31.79120 130.72609 860 ft 0 kts 63°
2026-05-08 13:33 31.79120 130.72610 860 ft 0 kts 63°
2026-05-08 13:37 31.79124 130.72620 860 ft 1 kts 62°
2026-05-08 13:37 31.79130 130.72632 859 ft 0 kts 60°
2026-05-08 13:39 31.79132 130.72636 859 ft 2 kts 59°
2026-05-08 13:39 31.79152 130.72673 859 ft 7 kts 58°
2026-05-08 13:40 31.79195 130.72714 859 ft 7 kts 342°
2026-05-08 13:40 31.79203 130.72708 860 ft 0 kts 328°
2026-05-08 13:40 31.79204 130.72708 860 ft 0 kts 330°
2026-05-08 13:41 31.79211 130.72704 860 ft 7 kts 329°
2026-05-08 13:41 31.79509 130.72501 870 ft 90 kts 330°
2026-05-08 13:41 31.80225 130.72026 934 ft 136 kts 328°
2026-05-08 13:41 31.81074 130.71490 1378 ft 142 kts 332°
2026-05-08 13:42 31.81945 130.70966 2002 ft 142 kts 331°
2026-05-08 13:42 31.82859 130.70470 2533 ft 149 kts 339°
2026-05-08 13:42 31.83820 130.70047 3075 ft 155 kts 340°
2026-05-08 13:42 31.84930 130.69653 3327 ft 174 kts 345°
2026-05-08 13:43 31.86078 130.69298 3855 ft 178 kts 344°
2026-05-08 13:43 31.87382 130.68877 3945 ft 205 kts 344°
2026-05-08 13:43 31.88811 130.68407 4184 ft 222 kts 344°
2026-05-08 13:43 31.90294 130.67917 4680 ft 225 kts 344°
2026-05-08 13:44 31.91826 130.67413 5089 ft 229 kts 344°
2026-05-08 13:44 31.93392 130.66891 5497 ft 233 kts 344°
2026-05-08 13:44 31.94946 130.66385 5954 ft 233 kts 345°
2026-05-08 13:44 31.96513 130.65855 6366 ft 236 kts 342°
2026-05-08 13:45 31.98072 130.65228 6802 ft 237 kts 340°
2026-05-08 13:45 31.99629 130.64586 7212 ft 240 kts 340°
2026-05-08 13:45 32.01206 130.63936 7629 ft 242 kts 340°
2026-05-08 13:45 32.02816 130.63274 8040 ft 244 kts 339°
2026-05-08 13:46 32.04416 130.62617 8423 ft 247 kts 339°
2026-05-08 13:46 32.06032 130.61955 8859 ft 247 kts 339°
2026-05-08 13:46 32.07673 130.61282 9281 ft 248 kts 339°
2026-05-08 13:46 32.09309 130.60611 9619 ft 252 kts 338°
2026-05-08 13:47 32.10963 130.59935 10026 ft 254 kts 338°
2026-05-08 13:47 32.12637 130.59250 10487 ft 253 kts 338°
2026-05-08 13:47 32.14315 130.58562 10802 ft 258 kts 337°
2026-05-08 13:47 32.16011 130.57867 11223 ft 258 kts 337°
2026-05-08 13:48 32.17704 130.57173 11599 ft 259 kts 336°
2026-05-08 13:48 32.19407 130.56476 11929 ft 262 kts 336°
2026-05-08 13:48 32.21124 130.55772 12345 ft 261 kts 336°
2026-05-08 13:48 32.22877 130.55052 12640 ft 264 kts 336°
2026-05-08 13:49 32.24600 130.54346 12954 ft 266 kts 335°
2026-05-08 13:49 32.26363 130.53622 13283 ft 267 kts 335°
2026-05-08 13:49 32.28108 130.52907 13601 ft 268 kts 335°
2026-05-08 13:49 32.29882 130.52222 13962 ft 270 kts 340°
2026-05-08 13:50 32.31783 130.51941 14234 ft 278 kts 350°
2026-05-08 13:50 32.33721 130.51829 14488 ft 281 kts 350°
2026-05-08 13:50 32.35683 130.51718 14790 ft 281 kts 350°
2026-05-08 13:50 32.37623 130.51579 15022 ft 280 kts 346°
2026-05-08 13:51 32.39397 130.50786 15190 ft 267 kts 317°
2026-05-08 13:51 32.40556 130.49104 15290 ft 265 kts 298°
2026-05-08 13:51 32.41489 130.47221 15571 ft 264 kts 297°
2026-05-08 13:51 32.42408 130.45329 15748 ft 267 kts 297°
2026-05-08 13:52 32.43312 130.43449 16162 ft 260 kts 297°
2026-05-08 13:52 32.44168 130.41666 16763 ft 246 kts 297°
2026-05-08 13:52 32.44993 130.39940 17272 ft 236 kts 296°
2026-05-08 13:52 32.45784 130.38278 17721 ft 228 kts 296°
2026-05-08 13:53 32.46549 130.36671 18034 ft 227 kts 295°
2026-05-08 13:53 32.47333 130.35013 18136 ft 234 kts 296°
2026-05-08 13:53 32.48132 130.33316 18160 ft 241 kts 295°
2026-05-08 13:53 32.48953 130.31575 18168 ft 244 kts 295°
2026-05-08 13:54 32.49790 130.29799 18183 ft 247 kts 295°
2026-05-08 13:54 32.50634 130.28009 18182 ft 250 kts 295°
2026-05-08 13:54 32.51486 130.26198 18168 ft 253 kts 296°
2026-05-08 13:54 32.52340 130.24385 18170 ft 255 kts 296°
2026-05-08 13:55 32.53211 130.22536 18171 ft 257 kts 295°
2026-05-08 13:55 32.54086 130.20677 18170 ft 258 kts 296°
2026-05-08 13:55 32.55835 130.16957 18167 ft 261 kts 296°
2026-05-08 13:56 32.56723 130.15068 18162 ft 262 kts 296°
2026-05-08 13:56 32.57616 130.13165 18168 ft 263 kts 296°
2026-05-08 13:56 32.58501 130.11281 18173 ft 264 kts 296°
2026-05-08 13:56 32.59394 130.09378 18168 ft 265 kts 296°
2026-05-08 13:57 32.60451 130.07579 18148 ft 272 kts 311°
2026-05-08 13:57 32.62174 130.06561 18182 ft 286 kts 336°
2026-05-08 13:57 32.64125 130.06039 18173 ft 290 kts 339°
2026-05-08 13:57 32.66126 130.05547 18170 ft 291 kts 339°
2026-05-08 13:58 32.68111 130.05058 18154 ft 291 kts 339°
2026-05-08 13:58 32.70076 130.04573 18164 ft 291 kts 339°
2026-05-08 13:58 32.72062 130.04077 18161 ft 292 kts 339°
2026-05-08 13:58 32.74072 130.03574 18173 ft 292 kts 339°
2026-05-08 13:59 32.76064 130.03073 18173 ft 292 kts 339°
2026-05-08 13:59 32.78048 130.02573 18161 ft 293 kts 339°
2026-05-08 13:59 32.80031 130.02071 18149 ft 292 kts 339°
2026-05-08 13:59 32.82026 130.01566 18158 ft 292 kts 339°
2026-05-08 14:00 32.84032 130.01056 18156 ft 292 kts 339°
2026-05-08 14:00 32.86002 130.00555 18164 ft 292 kts 339°
2026-05-08 14:00 32.87991 130.00049 18157 ft 292 kts 339°
2026-05-08 14:00 32.89993 129.99539 18158 ft 292 kts 339°
2026-05-08 14:01 32.91979 129.99033 18155 ft 292 kts 339°
2026-05-08 14:01 32.93960 129.98528 18172 ft 292 kts 339°
2026-05-08 14:01 32.95950 129.98019 18173 ft 292 kts 339°
2026-05-08 14:01 32.97937 129.97511 18164 ft 292 kts 339°
2026-05-08 14:02 32.99918 129.97006 18167 ft 292 kts 339°
2026-05-08 14:02 33.01922 129.96493 18168 ft 292 kts 339°
2026-05-08 14:02 33.03904 129.95987 18164 ft 292 kts 339°
2026-05-08 14:02 33.05897 129.95476 18163 ft 293 kts 339°
2026-05-08 14:03 33.07885 129.94968 18157 ft 292 kts 339°
2026-05-08 14:03 33.09890 129.94453 18171 ft 292 kts 339°
2026-05-08 14:03 33.11866 129.93947 18163 ft 293 kts 339°
2026-05-08 14:03 33.13864 129.93436 18158 ft 292 kts 339°
2026-05-08 14:04 33.15854 129.92925 18154 ft 292 kts 339°
2026-05-08 14:04 33.17846 129.92413 18160 ft 292 kts 339°
2026-05-08 14:04 33.19831 129.91904 18160 ft 292 kts 339°
2026-05-08 14:04 33.21811 129.91396 18167 ft 291 kts 338°
2026-05-08 14:05 33.23782 129.90889 18162 ft 291 kts 338°
2026-05-08 14:05 33.25783 129.90375 18160 ft 291 kts 338°
2026-05-08 14:05 33.27753 129.89868 18153 ft 291 kts 338°
2026-05-08 14:05 33.29771 129.89343 17701 ft 308 kts 339°
2026-05-08 14:06 33.31914 129.88783 17223 ft 314 kts 340°
2026-05-08 14:06 33.34003 129.88246 16793 ft 305 kts 340°
2026-05-08 14:06 33.36032 129.87726 16406 ft 295 kts 340°
2026-05-08 14:06 33.38028 129.87213 16029 ft 287 kts 340°
2026-05-08 14:07 33.39962 129.86716 15651 ft 280 kts 340°
2026-05-08 14:07 33.41837 129.86232 15295 ft 273 kts 340°
2026-05-08 14:07 33.43659 129.85761 14957 ft 266 kts 340°
2026-05-08 14:07 33.45453 129.85297 14626 ft 260 kts 340°
2026-05-08 14:08 33.47214 129.84843 14304 ft 262 kts 341°
2026-05-08 14:08 33.49126 129.84715 14066 ft 289 kts 357°
2026-05-08 14:08 33.51185 129.85013 13816 ft 304 kts
2026-05-08 14:08 33.53312 129.85356 13558 ft 311 kts
2026-05-08 14:09 33.55456 129.85704 13321 ft 316 kts
2026-05-08 14:09 33.57655 129.86052 13073 ft 319 kts
2026-05-08 14:09 33.59850 129.86397 12821 ft 321 kts
2026-05-08 14:09 33.62087 129.86746 12581 ft 322 kts
2026-05-08 14:10 33.64288 129.87088 12318 ft 312 kts
2026-05-08 14:10 33.66402 129.87415 12190 ft 301 kts
2026-05-08 14:10 33.68468 129.87732 12152 ft 298 kts
2026-05-08 14:10 33.70504 129.88045 12148 ft 295 kts
2026-05-08 14:11 33.72549 129.88356 12150 ft 292 kts
2026-05-08 14:11 33.74539 129.88745 12144 ft 294 kts
2026-05-08 14:11 33.76491 129.89549 12160 ft 295 kts 14°
2026-05-08 14:11 33.78395 129.90427 12162 ft 295 kts 14°
2026-05-08 14:12 33.80324 129.91316 12150 ft 294 kts 14°
2026-05-08 14:12 33.82210 129.92184 12153 ft 293 kts 14°
2026-05-08 14:12 33.84112 129.93129 12138 ft 296 kts 20°
2026-05-08 14:12 33.85767 129.94667 12163 ft 304 kts 36°
2026-05-08 14:13 33.87307 129.96423 12155 ft 304 kts 36°
2026-05-08 14:13 33.88825 129.98163 12149 ft 304 kts 36°
2026-05-08 14:13 33.90360 129.99921 12147 ft 304 kts 36°
2026-05-08 14:13 33.91877 130.01724 12135 ft 308 kts 41°
2026-05-08 14:14 33.92987 130.03975 12156 ft 317 kts 58°
2026-05-08 14:14 33.93885 130.06407 12156 ft 318 kts 59°
2026-05-08 14:14 33.94772 130.08832 12145 ft 319 kts 59°
2026-05-08 14:14 33.95670 130.11281 12139 ft 319 kts 59°
2026-05-08 14:15 33.96481 130.13766 12130 ft 325 kts 69°
2026-05-08 14:15 33.96704 130.16490 12165 ft 330 kts 83°
2026-05-08 14:15 33.96735 130.19272 12159 ft 336 kts 87°
2026-05-08 14:15 33.96178 130.22011 12142 ft 346 kts 116°
2026-05-08 14:16 33.94614 130.24179 12149 ft 344 kts 146°
2026-05-08 14:16 33.92416 130.25229 12146 ft 333 kts 177°
2026-05-08 14:16 33.90167 130.25116 12171 ft 323 kts 194°
2026-05-08 14:16 33.87953 130.24718 12161 ft 323 kts 195°
2026-05-08 14:17 33.85718 130.24291 12158 ft 324 kts 196°
2026-05-08 14:17 33.83495 130.23856 11940 ft 318 kts 195°
2026-05-08 14:17 33.81364 130.23448 11641 ft 304 kts 196°
2026-05-08 14:17 33.79322 130.23053 11343 ft 292 kts 196°
2026-05-08 14:18 33.77338 130.22661 11053 ft 281 kts 196°
2026-05-08 14:18 33.75458 130.22287 10760 ft 272 kts 196°
2026-05-08 14:18 33.73582 130.21907 10483 ft 275 kts 197°
2026-05-08 14:18 33.71635 130.21492 10233 ft 296 kts 195°
2026-05-08 14:19 33.69485 130.21484 9882 ft 321 kts 171°
2026-05-08 14:19 33.67523 130.22615 9515 ft 313 kts 146°
2026-05-08 14:19 33.65770 130.24155 9143 ft 310 kts 143°
2026-05-08 14:19 33.64047 130.25679 8779 ft 308 kts 143°
2026-05-08 14:20 33.62299 130.27214 8402 ft 305 kts 144°
2026-05-08 14:20 33.60622 130.28679 8015 ft 296 kts 144°
2026-05-08 14:20 33.58966 130.30116 7630 ft 286 kts 144°
2026-05-08 14:20 33.57392 130.31473 7254 ft 277 kts 143°
2026-05-08 14:21 33.55846 130.32796 6857 ft 268 kts 144°
2026-05-08 14:21 33.54316 130.34016 6479 ft 260 kts 146°
2026-05-08 14:21 33.52825 130.35167 6103 ft 253 kts 147°
2026-05-08 14:21 33.51331 130.36314 5737 ft 259 kts 147°
2026-05-08 14:22 33.49803 130.37486 5370 ft 261 kts 146°
2026-05-08 14:22 33.48269 130.38669 5002 ft 262 kts 146°
2026-05-08 14:22 33.46742 130.39845 4637 ft 262 kts 146°
2026-05-08 14:22 33.45218 130.41019 4325 ft 258 kts 146°
2026-05-08 14:23 33.43665 130.42209 4241 ft 272 kts 146°
2026-05-08 14:23 33.42072 130.43433 4179 ft 267 kts 146°
2026-05-08 14:23 33.40532 130.44617 4150 ft 259 kts 146°
2026-05-08 14:23 33.39051 130.45756 4158 ft 249 kts 146°
2026-05-08 14:24 33.37791 130.47076 4153 ft 236 kts 121°
2026-05-08 14:24 33.37147 130.48810 4165 ft 222 kts 104°
2026-05-08 14:24 33.36652 130.50545 4095 ft 219 kts 104°
2026-05-08 14:24 33.36225 130.52283 3945 ft 217 kts 92°
2026-05-08 14:25 33.36452 130.54011 3751 ft 207 kts 57°
2026-05-08 14:25 33.37407 130.55215 3577 ft 197 kts 25°
2026-05-08 14:25 33.38660 130.55868 3423 ft 201 kts 18°
2026-05-08 14:25 33.39978 130.56516 3266 ft 208 kts 18°
2026-05-08 14:26 33.41393 130.56834 3101 ft 206 kts 349°
2026-05-08 14:26 33.42636 130.56059 3060 ft 204 kts 324°
2026-05-08 14:26 33.43821 130.55107 3018 ft 203 kts 330°
2026-05-08 14:26 33.45020 130.54283 2863 ft 193 kts 331°
2026-05-08 14:27 33.46191 130.53510 2511 ft 190 kts 332°
2026-05-08 14:27 33.47278 130.52779 2332 ft 167 kts 331°
2026-05-08 14:27 33.48240 130.52122 1998 ft 155 kts 333°
2026-05-08 14:27 33.49135 130.51531 1821 ft 145 kts 334°
2026-05-08 14:28 33.50018 130.50944 1650 ft 145 kts 334°
2026-05-08 14:28 33.50873 130.50319 1442 ft 139 kts 329°
2026-05-08 14:28 33.51717 130.49718 1421 ft 138 kts 331°
2026-05-08 14:28 33.52578 130.49141 1133 ft 143 kts 329°
2026-05-08 14:29 33.53431 130.48570 894 ft 141 kts 331°
2026-05-08 14:29 33.54281 130.47996 781 ft 141 kts 327°
2026-05-08 14:29 33.55164 130.47398 588 ft 147 kts 330°
2026-05-08 14:29 33.56056 130.46800 388 ft 145 kts 330°
2026-05-08 14:30 33.56930 130.46210 174 ft 145 kts 327°
2026-05-08 14:30 33.57810 130.45605 55 ft 140 kts 325°
2026-05-08 14:30 33.58542 130.45100 43 ft 97 kts 329°
2026-05-08 14:30 33.58911 130.44939 43 ft 39 kts
2026-05-08 14:31 33.59109 130.44936 43 ft 21 kts 351°